Location: Colorado Springs
(38.8340°N, 104.8210°W)
Time: 02:32:23
(UTC-07:00)

Vanguard 3 - Pass Details

Date: 30 October 2017
Orbit: 510 x 3263 km, 33.3° (Epoch: 24 November)

Event Time Altitude Azimuth Distance (km) Brightness Sun altitude
Rises 00:00:36 0° 212° (SSW) 6,788 - -63.3°
Reaches altitude 10° 00:05:27 10° 205° (SSW) 5,988 - -63.7°
Maximum altitude 00:22:22 38° 146° (SE) 4,253 - -64.6°
Drops below altitude 10° 00:37:36 10° 87° (E) 5,459 - -65.0°
Exits shadow 00:38:22 - 85° (E) 5,582 11.4 -65.0°
Sets 00:41:41 0° 80° (E) 6,161 11.7 -65.0°
